Time,TemperatureF,DewpointF,PressureIn,WindDirection,WindDirectionDegrees,WindSpeedMPH,WindSpeedGustMPH,Humidity,HourlyPrecipIn,Conditions,Clouds,dailyrainin,SoftwareType,DateUTC
2013-04-01 00:03:00,24.0,-99.9,-100.00,North,-999,15.0,-999.0,0,-99.99,,,-99.99,,2013-04-01 05:03:00,
2013-04-01 00:13:00,23.0,-99.9,-100.00,West,259,20.0,-999.0,0,-99.99,,,-99.99,,2013-04-01 05:13:00,
2013-04-01 00:23:00,23.0,-99.9,-100.00,West,259,17.0,-999.0,0,-99.99,,,-99.99,,2013-04-01 05:23:00,
2013-04-01 00:33:00,23.0,-99.9,-100.00,North,-999,17.0,-999.0,0,-99.99,,,-99.99,,2013-04-01 05:33:00,
2013-04-01 00:43:00,23.0,-99.9,-100.00,North,-999,17.0,-999.0,0,-99.99,,,-99.99,,2013-04-01 05:43:00,
2013-04-01 00:53:00,23.0,-99.9,-100.00,West,260,14.0,-999.0,0,-99.99,,,-99.99,,2013-04-01 05:53:00,
2013-04-01 01:03:00,22.0,-99.9,-100.00,North,-999,15.0,-999.0,0,-99.99,,,-99.99,,2013-04-01 06:03:00,
2013-04-01 01:13:00,22.0,-99.9,-100.00,North,-999,15.0,-999.0,0,-99.99,,,-99.99,,2013-04-01 06:13:00,
2013-04-01 01:23:00,22.0,-99.9,-100.00,North,-999,24.0,-999.0,0,-99.99,,,-99.99,,2013-04-01 06:23:00,
2013-04-01 01:34:00,22.0,-99.9,-100.00,North,-999,21.0,-999.0,0,-99.99,,,-99.99,,2013-04-01 06:34:00,
2013-04-01 01:43:00,22.0,-99.9,-100.00,NNW,343,18.0,-999.0,0,-99.99,,,-99.99,,2013-04-01 06:43:00,
2013-04-01 01:53:00,21.0,-99.9,-100.00,North,-999,18.0,-999.0,0,-99.99,,,-99.99,,2013-04-01 06:53:00,
2013-04-01 02:03:00,21.0,-99.9,-100.00,North,-999,15.0,-999.0,0,-99.99,,,-99.99,,2013-04-01 07:03:00,
2013-04-01 02:13:00,21.0,-99.9,-100.00,North,-999,18.0,-999.0,0,-99.99,,,-99.99,,2013-04-01 07:13:00,
2013-04-01 02:23:00,21.0,-99.9,-100.00,North,-999,17.0,-999.0,0,-99.99,,,-99.99,,2013-04-01 07:23:00,
2013-04-01 02:33:00,21.0,-99.9,-100.00,North,-999,12.0,-999.0,0,-99.99,,,-99.99,,2013-04-01 07:33:00,
2013-04-01 02:43:00,21.0,-99.9,-100.00,North,-999,17.0,-999.0,0,-99.99,,,-99.99,,2013-04-01 07:43:00,
2013-04-01 02:53:00,21.0,-99.9,-100.00,North,-999,16.0,-999.0,0,-99.99,,,-99.99,,2013-04-01 07:53:00,
2013-04-01 03:03:00,20.0,-99.9,-100.00,North,-999,16.0,-999.0,0,-99.99,,,-99.99,,2013-04-01 08:03:00,
2013-04-01 03:13:00,20.0,-99.9,-100.00,North,-999,14.0,-999.0,0,-99.99,,,-99.99,,2013-04-01 08:13:00,
2013-04-01 03:23:00,20.0,-99.9,-100.00,NNW,340,17.0,-999.0,0,-99.99,,,-99.99,,2013-04-01 08:23:00,
2013-04-01 03:33:00,20.0,-99.9,-100.00,North,-999,15.0,-999.0,0,-99.99,,,-99.99,,2013-04-01 08:33:00,
2013-04-01 03:44:00,20.0,-99.9,-100.00,North,-999,10.0,-999.0,0,-99.99,,,-99.99,,2013-04-01 08:44:00,
2013-04-01 03:53:00,20.0,-99.9,-100.00,North,-999,9.0,-999.0,0,-99.99,,,-99.99,,2013-04-01 08:53:00,
2013-04-01 04:03:00,20.0,-99.9,-100.00,North,-999,11.0,-999.0,0,-99.99,,,-99.99,,2013-04-01 09:03:00,
2013-04-01 04:12:00,19.0,-99.9,-100.00,North,-999,9.0,-999.0,0,-99.99,,,-99.99,,2013-04-01 09:12:00,
2013-04-01 04:23:00,19.0,-99.9,-100.00,NNW,342,11.0,-999.0,0,-99.99,,,-99.99,,2013-04-01 09:23:00,
2013-04-01 04:33:00,19.0,-99.9,-100.00,North,-999,11.0,-999.0,0,-99.99,,,-99.99,,2013-04-01 09:33:00,
2013-04-01 04:43:00,19.0,-99.9,-100.00,South,174,15.0,-999.0,0,-99.99,,,-99.99,,2013-04-01 09:43:00,
2013-04-01 04:54:00,19.0,-99.9,-100.00,North,-999,10.0,-999.0,0,-99.99,,,-99.99,,2013-04-01 09:54:00,
2013-04-01 05:03:00,19.0,-99.9,-100.00,North,-999,14.0,-999.0,0,-99.99,,,-99.99,,2013-04-01 10:03:00,
2013-04-01 05:13:00,19.0,-99.9,-100.00,North,-999,12.0,-999.0,0,-99.99,,,-99.99,,2013-04-01 10:13:00,
2013-04-01 05:24:00,18.0,-99.9,-100.00,North,-999,14.0,-999.0,0,-99.99,,,-99.99,,2013-04-01 10:24:00,
2013-04-01 05:34:00,18.0,-99.9,-100.00,North,-999,9.0,-999.0,0,-99.99,,,-99.99,,2013-04-01 10:34:00,
2013-04-01 05:43:00,18.0,-99.9,-100.00,NNW,335,5.0,-999.0,0,-99.99,,,-99.99,,2013-04-01 10:43:00,
2013-04-01 05:54:00,18.0,-99.9,-100.00,NNW,338,5.0,-999.0,0,-99.99,,,-99.99,,2013-04-01 10:54:00,
2013-04-01 06:03:00,18.0,-99.9,-100.00,NNW,338,8.0,-999.0,0,-99.99,,,-99.99,,2013-04-01 11:03:00,
2013-04-01 06:13:00,18.0,-99.9,-100.00,NNW,342,10.0,-999.0,0,-99.99,,,-99.99,,2013-04-01 11:13:00,
2013-04-01 06:23:00,18.0,-99.9,-100.00,North,-999,11.0,-999.0,0,-99.99,,,-99.99,,2013-04-01 11:23:00,
2013-04-01 06:33:00,17.0,-99.9,-100.00,North,-999,9.0,-999.0,0,-99.99,,,-99.99,,2013-04-01 11:33:00,
2013-04-01 06:43:00,17.0,-99.9,-100.00,North,-999,11.0,-999.0,0,-99.99,,,-99.99,,2013-04-01 11:43:00,
2013-04-01 06:53:00,18.0,-99.9,-100.00,NNW,342,7.0,-999.0,0,-99.99,,,-99.99,,2013-04-01 11:53:00,
2013-04-01 07:03:00,18.0,-99.9,-100.00,NNW,339,9.0,-999.0,0,-99.99,,,-99.99,,2013-04-01 12:03:00,
2013-04-01 07:12:00,18.0,-99.9,-100.00,NNW,335,8.0,-999.0,0,-99.99,,,-99.99,,2013-04-01 12:12:00,
2013-04-01 07:23:00,17.0,-99.9,-100.00,NNW,341,8.0,-999.0,0,-99.99,,,-99.99,,2013-04-01 12:23:00,
2013-04-01 07:33:00,17.0,-99.9,-100.00,NW,326,7.0,-999.0,0,-99.99,,,-99.99,,2013-04-01 12:33:00,
2013-04-01 07:43:00,18.0,-99.9,-100.00,NNW,329,7.0,-999.0,0,-99.99,,,-99.99,,2013-04-01 12:43:00,
2013-04-01 07:53:00,18.0,-99.9,-100.00,NNW,327,9.0,-999.0,0,-99.99,,,-99.99,,2013-04-01 12:53:00,
2013-04-01 08:03:00,17.0,-99.9,-100.00,NNW,342,4.0,-999.0,0,-99.99,,,-99.99,,2013-04-01 13:03:00,
2013-04-01 08:13:00,18.0,-99.9,-100.00,NNW,329,8.0,-999.0,0,-99.99,,,-99.99,,2013-04-01 13:13:00,
2013-04-01 08:23:00,18.0,-99.9,-100.00,North,-999,5.0,-999.0,0,-99.99,,,-99.99,,2013-04-01 13:23:00,
2013-04-01 08:33:00,18.0,-99.9,-100.00,NW,322,7.0,-999.0,0,-99.99,,,-99.99,,2013-04-01 13:33:00,
2013-04-01 08:43:00,19.0,-99.9,-100.00,NNW,337,7.0,-999.0,0,-99.99,,,-99.99,,2013-04-01 13:43:00,
2013-04-01 08:53:00,19.0,-99.9,-100.00,NNW,334,12.0,-999.0,0,-99.99,,,-99.99,,2013-04-01 13:53:00,
2013-04-01 09:05:00,20.0,-99.9,-100.00,North,-999,12.0,-999.0,0,-99.99,,,-99.99,,2013-04-01 14:05:00,
2013-04-01 09:13:00,20.0,-99.9,-100.00,NNW,343,17.0,-999.0,0,-99.99,,,-99.99,,2013-04-01 14:13:00,
2013-04-01 09:23:00,20.0,-99.9,-100.00,North,-999,15.0,-999.0,0,-99.99,,,-99.99,,2013-04-01 14:23:00,
2013-04-01 09:33:00,20.0,-99.9,-100.00,North,-999,14.0,-999.0,0,-99.99,,,-99.99,,2013-04-01 14:33:00,
2013-04-01 09:43:00,21.0,-99.9,-100.00,North,-999,14.0,-999.0,0,-99.99,,,-99.99,,2013-04-01 14:43:00,
2013-04-01 09:53:00,22.0,-99.9,-100.00,NNW,343,15.0,-999.0,0,-99.99,,,-99.99,,2013-04-01 14:53:00,
2013-04-01 10:04:00,22.0,-99.9,-100.00,North,-999,16.0,-999.0,0,-99.99,,,-99.99,,2013-04-01 15:04:00,
2013-04-01 10:13:00,22.0,-99.9,-100.00,NNW,343,11.0,-999.0,0,-99.99,,,-99.99,,2013-04-01 15:13:00,
2013-04-01 10:23:00,23.0,-99.9,-100.00,North,-999,17.0,-999.0,0,-99.99,,,-99.99,,2013-04-01 15:23:00,
2013-04-01 10:34:00,23.0,-99.9,-100.00,North,-999,13.0,-999.0,0,-99.99,,,-99.99,,2013-04-01 15:34:00,
2013-04-01 10:44:00,23.0,-99.9,-100.00,North,-999,12.0,-999.0,0,-99.99,,,-99.99,,2013-04-01 15:44:00,
2013-04-01 10:54:00,24.0,-99.9,-100.00,NW,320,14.0,-999.0,0,-99.99,,,-99.99,,2013-04-01 15:54:00,
2013-04-01 11:03:00,24.0,-99.9,-100.00,SSW,207,14.0,-999.0,0,-99.99,,,-99.99,,2013-04-01 16:03:00,
2013-04-01 11:13:00,24.0,-99.9,-100.00,North,-999,12.0,-999.0,0,-99.99,,,-99.99,,2013-04-01 16:13:00,
2013-04-01 11:24:00,25.0,-99.9,-100.00,NNW,342,17.0,-999.0,0,-99.99,,,-99.99,,2013-04-01 16:24:00,
2013-04-01 11:34:00,25.0,-99.9,-100.00,NNW,342,17.0,-999.0,0,-99.99,,,-99.99,,2013-04-01 16:34:00,
2013-04-01 11:43:00,25.0,-99.9,-100.00,NNW,342,17.0,-999.0,0,-99.99,,,-99.99,,2013-04-01 16:43:00,
2013-04-01 12:04:00,26.0,-99.9,-100.00,North,-999,23.0,-999.0,0,-99.99,,,-99.99,,2013-04-01 17:04:00,
2013-04-01 12:13:00,26.0,-99.9,-100.00,North,-999,23.0,-999.0,0,-99.99,,,-99.99,,2013-04-01 17:13:00,
2013-04-01 12:23:00,26.0,-99.9,-100.00,North,-999,23.0,-999.0,0,-99.99,,,-99.99,,2013-04-01 17:23:00,
2013-04-01 12:32:00,27.0,-99.9,-100.00,North,-999,16.0,-999.0,0,-99.99,,,-99.99,,2013-04-01 17:32:00,
2013-04-01 12:42:00,27.0,-99.9,-100.00,North,9,18.0,-999.0,0,-99.99,,,-99.99,,2013-04-01 17:42:00,
2013-04-01 12:54:00,28.0,-99.9,-100.00,NNW,341,20.0,-999.0,0,-99.99,,,-99.99,,2013-04-01 17:54:00,
2013-04-01 13:03:00,28.0,-99.9,-100.00,North,-999,21.0,-999.0,0,-99.99,,,-99.99,,2013-04-01 18:03:00,
2013-04-01 13:13:00,29.0,-99.9,-100.00,NNW,343,17.0,-999.0,0,-99.99,,,-99.99,,2013-04-01 18:13:00,
2013-04-01 13:22:00,28.0,-99.9,-100.00,North,-999,13.0,-999.0,0,-99.99,,,-99.99,,2013-04-01 18:22:00,
2013-04-01 13:33:00,29.0,-99.9,-100.00,NNW,337,14.0,-999.0,0,-99.99,,,-99.99,,2013-04-01 18:33:00,
2013-04-01 13:43:00,29.0,-99.9,-100.00,NW,324,10.0,-999.0,0,-99.99,,,-99.99,,2013-04-01 18:43:00,
2013-04-01 13:54:00,29.0,-99.9,-100.00,NNW,336,12.0,-999.0,0,-99.99,,,-99.99,,2013-04-01 18:54:00,
2013-04-01 14:04:00,30.0,-99.9,-100.00,NNW,335,14.0,-999.0,0,-99.99,,,-99.99,,2013-04-01 19:04:00,
2013-04-01 14:13:00,30.0,-99.9,-100.00,NNW,332,7.0,-999.0,0,-99.99,,,-99.99,,2013-04-01 19:13:00,
2013-04-01 14:23:00,30.0,-99.9,-100.00,North,-999,7.0,-999.0,0,-99.99,,,-99.99,,2013-04-01 19:23:00,
2013-04-01 14:33:00,30.0,-99.9,-100.00,NW,318,12.0,-999.0,0,-99.99,,,-99.99,,2013-04-01 19:33:00,
2013-04-01 14:43:00,31.0,-99.9,-100.00,West,259,15.0,-999.0,0,-99.99,,,-99.99,,2013-04-01 19:43:00,
2013-04-01 14:53:00,30.0,-99.9,-100.00,NNW,329,8.0,-999.0,0,-99.99,,,-99.99,,2013-04-01 19:53:00,
2013-04-01 15:03:00,31.0,-99.9,-100.00,WNW,302,5.0,-999.0,0,-99.99,,,-99.99,,2013-04-01 20:03:00,
2013-04-01 15:13:00,32.0,-99.9,-100.00,North,-999,9.0,-999.0,0,-99.99,,,-99.99,,2013-04-01 20:13:00,
2013-04-01 15:23:00,33.0,-99.9,-100.00,NNW,341,12.0,-999.0,0,-99.99,,,-99.99,,2013-04-01 20:23:00,
2013-04-01 15:33:00,32.0,-99.9,-100.00,NW,317,12.0,-999.0,0,-99.99,,,-99.99,,2013-04-01 20:33:00,
2013-04-01 15:43:00,34.0,-99.9,-100.00,NNW,331,9.0,-999.0,0,-99.99,,,-99.99,,2013-04-01 20:43:00,
2013-04-01 15:53:00,33.0,-99.9,-100.00,NNW,328,10.0,-999.0,0,-99.99,,,-99.99,,2013-04-01 20:53:00,
2013-04-01 16:03:00,33.0,-99.9,-100.00,NNW,343,12.0,-999.0,0,-99.99,,,-99.99,,2013-04-01 21:03:00,
2013-04-01 16:12:00,33.0,-99.9,-100.00,NNE,17,11.0,-999.0,0,-99.99,,,-99.99,,2013-04-01 21:12:00,
2013-04-01 16:23:00,34.0,-99.9,-100.00,NNW,342,9.0,-999.0,0,-99.99,,,-99.99,,2013-04-01 21:23:00,
2013-04-01 16:33:00,34.0,-99.9,-100.00,NW,326,10.0,-999.0,0,-99.99,,,-99.99,,2013-04-01 21:33:00,
2013-04-01 16:44:00,33.0,-99.9,-100.00,North,-999,13.0,-999.0,0,-99.99,,,-99.99,,2013-04-01 21:44:00,
2013-04-01 16:53:00,33.0,-99.9,-100.00,NNW,329,11.0,-999.0,0,-99.99,,,-99.99,,2013-04-01 21:53:00,
2013-04-01 17:03:00,33.0,-99.9,-100.00,North,-999,12.0,-999.0,0,-99.99,,,-99.99,,2013-04-01 22:03:00,
2013-04-01 17:13:00,33.0,-99.9,-100.00,East,88,10.0,-999.0,0,-99.99,,,-99.99,,2013-04-01 22:13:00,
2013-04-01 17:23:00,34.0,-99.9,-100.00,NW,323,11.0,-999.0,0,-99.99,,,-99.99,,2013-04-01 22:23:00,
2013-04-01 17:33:00,34.0,-99.9,-100.00,North,-999,11.0,-999.0,0,-99.99,,,-99.99,,2013-04-01 22:33:00,
2013-04-01 17:44:00,34.0,-99.9,-100.00,North,-999,10.0,-999.0,0,-99.99,,,-99.99,,2013-04-01 22:44:00,
2013-04-01 17:53:00,34.0,-99.9,-100.00,NNW,331,10.0,-999.0,0,-99.99,,,-99.99,,2013-04-01 22:53:00,
2013-04-01 18:03:00,34.0,-99.9,-100.00,East,89,6.0,-999.0,0,-99.99,,,-99.99,,2013-04-01 23:03:00,
2013-04-01 18:12:00,34.0,-99.9,-100.00,NNE,23,11.0,-999.0,0,-99.99,,,-99.99,,2013-04-01 23:12:00,
2013-04-01 18:23:00,34.0,-99.9,-100.00,North,-999,11.0,-999.0,0,-99.99,,,-99.99,,2013-04-01 23:23:00,
2013-04-01 18:32:00,34.0,-99.9,-100.00,NNW,342,10.0,-999.0,0,-99.99,,,-99.99,,2013-04-01 23:32:00,
2013-04-01 18:43:00,34.0,-99.9,-100.00,North,2,12.0,-999.0,0,-99.99,,,-99.99,,2013-04-01 23:43:00,
2013-04-01 18:53:00,33.0,-99.9,-100.00,North,9,12.0,-999.0,0,-99.99,,,-99.99,,2013-04-01 23:53:00,
2013-04-01 19:03:00,34.0,-99.9,-100.00,NNW,330,8.0,-999.0,0,-99.99,,,-99.99,,2013-04-02 00:03:00,
2013-04-01 19:13:00,33.0,-99.9,-100.00,North,-999,12.0,-999.0,0,-99.99,,,-99.99,,2013-04-02 00:13:00,
2013-04-01 19:23:00,34.0,-99.9,-100.00,WSW,258,8.0,-999.0,0,-99.99,,,-99.99,,2013-04-02 00:23:00,
2013-04-01 19:33:00,33.0,-99.9,-100.00,North,-999,7.0,-999.0,0,-99.99,,,-99.99,,2013-04-02 00:33:00,
2013-04-01 19:43:00,33.0,-99.9,-100.00,North,-999,9.0,-999.0,0,-99.99,,,-99.99,,2013-04-02 00:43:00,
2013-04-01 19:53:00,32.0,-99.9,-100.00,North,-999,10.0,-999.0,0,-99.99,,,-99.99,,2013-04-02 00:53:00,
2013-04-01 20:03:00,32.0,-99.9,-100.00,North,4,9.0,-999.0,0,-99.99,,,-99.99,,2013-04-02 01:03:00,
2013-04-01 20:12:00,31.0,-99.9,-100.00,WNW,290,7.0,-999.0,0,-99.99,,,-99.99,,2013-04-02 01:12:00,
2013-04-01 20:23:00,31.0,-99.9,-100.00,North,-999,8.0,-999.0,0,-99.99,,,-99.99,,2013-04-02 01:23:00,
2013-04-01 20:32:00,30.0,-99.9,-100.00,North,-999,7.0,-999.0,0,-99.99,,,-99.99,,2013-04-02 01:32:00,
2013-04-01 20:43:00,30.0,-99.9,-100.00,North,-999,7.0,-999.0,0,-99.99,,,-99.99,,2013-04-02 01:43:00,
2013-04-01 20:53:00,29.0,-99.9,-100.00,East,89,8.0,-999.0,0,-99.99,,,-99.99,,2013-04-02 01:53:00,
2013-04-01 21:03:00,29.0,-99.9,-100.00,South,177,8.0,-999.0,0,-99.99,,,-99.99,,2013-04-02 02:03:00,
2013-04-01 21:13:00,29.0,-99.9,-100.00,South,173,8.0,-999.0,0,-99.99,,,-99.99,,2013-04-02 02:13:00,
2013-04-01 21:23:00,28.0,-99.9,-100.00,North,-999,7.0,-999.0,0,-99.99,,,-99.99,,2013-04-02 02:23:00,
2013-04-01 21:33:00,28.0,-99.9,-100.00,South,176,7.0,-999.0,0,-99.99,,,-99.99,,2013-04-02 02:33:00,
2013-04-01 21:43:00,28.0,-99.9,-100.00,WSW,253,7.0,-999.0,0,-99.99,,,-99.99,,2013-04-02 02:43:00,
2013-04-01 21:53:00,27.0,-99.9,-100.00,North,-999,8.0,-999.0,0,-99.99,,,-99.99,,2013-04-02 02:53:00,
2013-04-01 22:03:00,28.0,-99.9,-100.00,SSW,203,7.0,-999.0,0,-99.99,,,-99.99,,2013-04-02 03:03:00,
2013-04-01 22:13:00,27.0,-99.9,-100.00,West,259,8.0,-999.0,0,-99.99,,,-99.99,,2013-04-02 03:13:00,
2013-04-01 22:23:00,27.0,-99.9,-100.00,North,-999,7.0,-999.0,0,-99.99,,,-99.99,,2013-04-02 03:23:00,
2013-04-01 22:34:00,27.0,-99.9,-100.00,West,259,7.0,-999.0,0,-99.99,,,-99.99,,2013-04-02 03:34:00,
2013-04-01 22:44:00,27.0,-99.9,-100.00,WSW,240,6.0,-999.0,0,-99.99,,,-99.99,,2013-04-02 03:44:00,
2013-04-01 22:53:00,26.0,-99.9,-100.00,North,5,9.0,-999.0,0,-99.99,,,-99.99,,2013-04-02 03:53:00,
2013-04-01 23:03:00,26.0,-99.9,-100.00,North,3,10.0,-999.0,0,-99.99,,,-99.99,,2013-04-02 04:03:00,
2013-04-01 23:13:00,26.0,-99.9,-100.00,South,173,9.0,-999.0,0,-99.99,,,-99.99,,2013-04-02 04:13:00,
2013-04-01 23:23:00,26.0,-99.9,-100.00,North,-999,9.0,-999.0,0,-99.99,,,-99.99,,2013-04-02 04:23:00,
2013-04-01 23:33:00,26.0,-99.9,-100.00,North,-999,9.0,-999.0,0,-99.99,,,-99.99,,2013-04-02 04:33:00,
2013-04-01 23:43:00,25.0,-99.9,-100.00,North,-999,7.0,-999.0,0,-99.99,,,-99.99,,2013-04-02 04:43:00,
2013-04-01 23:53:00,25.0,-99.9,-100.00,South,177,8.0,-999.0,0,-99.99,,,-99.99,,2013-04-02 04:53:00,